Home > Weather > Sioux Falls > Past weeks

Flag for USA Weather for the Past 2 Weeks in Sioux Falls, South Dakota, USA

Now
49 °F

Overcast.


Feels Like: 45 °F
Forecast: 33 / 52 °F
Wind: 9 mph from Southeast

Location: Foss Field

Current Time: Apr 29, 2016 at 5:07:17 PM

Latest Report: Apr 29, 2016 at 3:56 PM


Visibility: 10 mi

Pressure: 30.14 "Hg

Humidity: 66%

Dew Point: 38 °F

Location of Sioux FallsLocation

Historic Weather in Sioux Falls — Graph

°F

Sioux Falls Temperature Yesterday

Maximum temperature yesterday: 43 °F (at 2:56 PM)
Minimum temperature yesterday: 38 °F (at 7:56 AM)
Average temperature yesterday: 40 °F

High & Low Weather Summary for the Past Weeks

 TemperatureHumidityPressure
High76 °F (Apr 14, 3:56 PM)97% (Apr 18, 5:56 AM)30.24 "Hg (Apr 18, 5:56 AM)
Low34 °F (Apr 22, 6:56 AM)26% (Apr 14, 4:56 PM)29.44 "Hg (Apr 25, 12:56 AM)
Average54 °F75%29.93 "Hg
* Reported Apr 14 3:56 PM — Apr 29 3:56 PM, Sioux Falls, Weather by CustomWeather, © 2016

Note: Actual official high and low records may vary slightly from our data, if they occured in-between our weather recording intervals... More about our weather records

Advertising

Sioux Falls Weather History for the Previous 24 Hours

Scroll right to see more
 ConditionsComfort  
Time TempWeatherWind HumidityBarometerVisibility
3:56 PM
Fri, Apr 29
49 °FOvercast.9 mph66%30.14 "Hg10 mi
2:56 PM50 °FMore clouds than sun.14 mph66%30.15 "Hg10 mi
1:56 PM50 °FMostly cloudy.18 mph66%30.14 "Hg10 mi
12:56 PM46 °FPartly sunny.15 mph77%30.16 "Hg10 mi
11:56 AM44 °FOvercast.12 mph79%30.17 "Hg10 mi
11:03 AM42 °FLow clouds.16 mph82%30.11 "Hg10 mi
10:56 AM42 °FOvercast.14 mph79%30.14 "Hg10 mi
9:56 AM42 °FOvercast.17 mph79%30.15 "Hg10 mi
8:56 AM41 °FMore clouds than sun.13 mph82%30.17 "Hg10 mi
7:56 AM40 °FLow clouds.8 mph86%30.19 "Hg10 mi
6:56 AM39 °FLow clouds.7 mph93%30.18 "Hg7 mi
5:56 AM40 °FOvercast.3 mph89%30.17 "Hg10 mi
4:56 AM40 °FOvercast.5 mph89%30.16 "Hg10 mi
3:56 AM40 °FLow clouds.3 mph89%30.16 "Hg9 mi
3:03 AM39 °FFog.No wind93%30.13 "Hg2 mi
1:56 AM39 °FFog.No wind93%30.17 "Hg6 mi
12:56 AM39 °FFog.No wind89%30.17 "Hg6 mi
11:56 PM
Thu, Apr 28
38 °FDrizzle. Low clouds.6 mph93%30.15 "Hg7 mi
10:56 PM39 °FMostly cloudy.5 mph86%30.15 "Hg10 mi
9:56 PM38 °FLow clouds.8 mph90%30.15 "Hg9 mi
8:56 PM39 °FOvercast.9 mph86%30.13 "Hg10 mi
7:56 PM40 °FOvercast.9 mph83%30.11 "Hg10 mi
6:56 PM41 °FOvercast.8 mph80%30.09 "Hg10 mi
5:56 PM41 °FOvercast.9 mph82%30.08 "Hg10 mi
Weather by CustomWeather, © 2016

See weather overviewHow to use our weather pages